Regional Weather Roundup
Issued by NWS

Home | Current Version | Previous Version | Graphics & Text | Print | Product List | Glossary On
Versions: 1 2 3 4 5 6 7 8 9 10 11 12 13 14 15 16 17 18 19 20 21 22 23 24 25 26 27 28 29 30 31 32 33 34 35 36 37 38 39 40 41 42 43 44 45 46 47 48 49 50
000
ASUS45 KBOI 031710
RWRID

IDAHO REGIONAL WEATHER ROUNDUP
NATIONAL WEATHER SERVICE BOISE ID
1100 AM MDT MON AUG 03 2015

NOTE: "FAIR" INDICATES FEW OR NO CLOUDS BELOW 12000 FEET
WITH NO SIGNIFICANT WEATHER AND/OR OBSTRUCTIONS TO VISIBILITY

IDZ012-014-031800-
SOUTHWEST IDAHO


CITY           SKY/WX    TMP DP  RH WIND       PRES   REMARKS
BOISE          CLOUDY    83  46  27 NE6       29.93R
CALDWELL       CLOUDY    84  48  28 SW8       29.91S
MOUNTAIN HOME  CLOUDY    81  45  28 N3        29.94R
$$

IDZ016-017-031800-
SOUTHCENTRAL IDAHO


CITY           SKY/WX    TMP DP  RH WIND       PRES   REMARKS
BURLEY         CLOUDY    76  50  40 W7        30.01R
JEROME         CLOUDY    76  47  35 SW10      30.00R
TWIN FALLS     CLOUDY    81  45  28 W15       29.98R
$$

IDZ019>023-031800-
SOUTHEAST IDAHO


CITY           SKY/WX    TMP DP  RH WIND       PRES   REMARKS
IDAHO FALLS    CLOUDY    75  50  41 S12       30.04S
POCATELLO      SUNNY     78  50  37 S15       30.03S
REXBURG        CLOUDY    75  47  36 SW8       30.05S
$$

IDZ006-010-011-018-031-032-031800-
CENTRAL IDAHO MOUNTAINS


CITY           SKY/WX    TMP DP  RH WIND       PRES   REMARKS
MCCALL         CLOUDY    73  45  36 S7        30.02S
HAILEY         CLOUDY    66  46  48 W5        30.06S
STANLEY          N/A     65  40  39 CALM      30.13S
SALMON         PTSUNNY   72  43  35 CALM      29.92F
CHALLIS        CLOUDY    71  42  35 NE3       30.00F
$$

IDZ002-004-006-007-026-031800-
NORTHERN IDAHO


CITY           SKY/WX    TMP DP  RH WIND       PRES   REMARKS
LEWISTON       CLOUDY    77  41  27 NE6       29.81R
LOWELL           N/A     73  48  41 CALM      29.83F
COEUR D`ALENE  SUNNY     79  43  27 SE3       29.82S
MULLAN PASS    MOSUNNY   77  30  17 CALM      30.06S
$$


USA.gov is the U.S. government's official web portal to all federal, state and local government web resources and services.